sat.trackr.live / text

‹ back to catalog

STARLINK-31900

NORAD 59942 · 2024-106W

PAYLOAD ACTIVE UNKNOWN

§ Identity

Operator
Country
US
Launch date
2024-06-01
Launch site
AFETR
Launch vehicle
Mass (kg)
RCS (m²)

Purposes: comms

External: N2YO · Heavens-Above · Gunter

§ Orbital elements

Epoch: 2026-09-21T13:38:32.644896Z

Period
94.27 min
Inclination
43.0035°
Eccentricity
0.0000974
Mean motion
15.27554182 rev/d
Perigee alt
482.5 km
Apogee alt
483.8 km
Semi-major
6,861.3 km
B*
2.1166e-4
RAAN
305.9846°
Arg perigee
288.4772°
Mean anomaly
71.5973°
Rev number
13,048

§ Raw data

STARLINK-319001 59942U 24106W   26264.56843339  .00005562  00000+0  21166-3 0  99992 59942  43.0035 305.9846 0000974 288.4772  71.5973 15.27554182130487

JSON: /api/v1/satellites/59942 · /tle

For live sub-satellite position, see the globe view (requires WebGL).

§ Visibility from observer

Set your observer location to see the next 7 days of passes ≥ 10°. The values pass through the URL so the page stays shareable.

No JS? Fill the form by hand. The geolocation button needs JavaScript.